ROMMA est une association bénévole à but non lucratif. Votre soutien est indispensable : ADHERER à ROMMA ou FAIRE un DON

Le Versoud - (38, Isère)

Vallée du Grésivaudan (220 m)   Longitude: 05° 51' 44" E   Latitude: 45° 13' 06" N Station partenaire n°6
 

Détail journalier du     <<     >>

Température Precipitation Humidité Pression Vent Dir Rafale Dir. rafale Ensol.
Heure (°C) (mm) (%) (hPa) (km/h) (km/h) (min)
01:00 7.3074102600---0
02:00 6.1078102600---0
03:00 5.3081102600---0
04:00 4.6084102600---0
05:00 4.0086102600---0
06:00 3.6086102600---0
07:00 2.9088102600---0
08:00 3.2088102600---0
09:00 8.4071102600---40
10:00 11.6056102600---60
11:00 14.6046102502ENE60
12:00 16.2040102302E60
13:00 17.3036102203ONO60
14:00 18.902710211ONO11ONO60
15:00 19.702610201ONO8ONO60
16:00 20.4023101908ONO60
17:00 20.90281019010NNO60
18:00 19.703210191NE15N60
19:00 17.9039101908NE35
20:00 14.3051101908NE0
21:00 12.4056102000---0
22:00 10.6065102000---0
23:00 9.6068102100---0
minuit 8.5073102100---0

Graphique du 30-03-2019

 

Serveur OMMA